Theta_e
303 302 303 304 304 304 307 308 311 313 313 313 312 312 309 310 310 311 311 311 310 310 310 311 311 314 316 316 317 317 317 317 316 317 317 316 316 316 318 322 324 324 323 318
301 303 305 303 303 305 306 307 308 308 310 309 310 311 311 309 309 310 311 311 311 310 310 311 311 311 311 311 312 314 316 316 317 316 316 315 315 315 317 318 318 315 311 311
306 303 304 307 309 309 309 309 309 310 311 311 311 311 312 311 311 312 311 311 311 311 310 310 310 311 311 311 311 311 311 312 314 315 315 315 314 314 313 313 311 310 312 315
306 305 310 309 307 309 309 307 307 308 308 308 309 308 308 309 311 311 311 310 310 310 309 309 309 309 310 310 311 311 311 310 311 313 314 314 313 313 312 311 310 312 314 314
306 306 305 308 308 308 308 310 306 306 306 307 308 307 308 307 307 307 307 308 309 309 309 309 309 309 309 309 309 310 310 311 311 312 313 313 313 312 312 311 310 311 313 311
304 305 306 309 306 305 306 311 305 305 306 306 308 312 310 306 306 307 307 307 308 308 309 309 309 309 309 308 309 309 309 309 311 311 312 313 312 312 312 311 311 312 310 307
303 305 303 303 304 304 310 309 305 305 304 305 306 305 304 306 307 308 308 308 307 308 308 308 308 308 308 307 308 308 308 308 309 311 311 312 312 312 311 311 311 307 306 306
302 304 306 302 305 307 306 304 304 304 304 304 304 304 305 305 307 306 306 307 307 307 307 307 307 307 307 307 307 308 308 308 308 310 311 311 311 311 311 309 307 306 306 306
304 305 302 305 305 304 304 304 302 301 300 301 302 302 303 305 306 306 306 307 307 307 307 307 308 309 309 308 308 309 309 307 308 310 310 311 311 310 308 306 306 306 306 306
305 304 302 302 303 303 300 299 298 298 298 298 300 301 301 303 306 306 306 306 307 307 307 307 308 309 309 308 308 308 307 307 309 310 310 310 309 308 307 306 306 306 306 305
304 303 300 300 301 300 298 297 298 298 297 298 298 300 300 301 305 306 305 305 306 306 306 306 307 308 308 308 308 308 308 309 310 310 310 309 309 308 307 306 305 306 305 304
304 301 300 301 298 297 297 297 297 297 297 298 297 298 299 301 304 305 304 305 306 306 306 305 305 306 307 308 308 308 308 309 309 308 308 307 307 307 305 305 305 305 304 305
299 297 297 298 298 297 295 296 296 297 297 298 300 299 299 301 305 305 304 304 305 307 305 305 305 304 304 306 307 307 307 307 307 307 307 306 306 305 305 305 304 304 304 303
297 298 298 297 296 295 296 296 297 299 298 299 300 301 302 302 305 305 304 305 305 305 303 303 303 303 303 305 305 305 306 307 307 306 305 305 304 304 304 304 304 303 303 303
297 297 298 297 296 296 296 297 300 299 299 300 300 300 301 302 304 305 305 304 304 302 303 302 302 301 301 302 302 302 302 303 304 304 304 304 303 303 303 303 302 302 302 302
297 297 297 296 295 296 297 298 299 299 300 301 301 301 302 302 303 303 303 303 303 303 302 302 301 301 301 302 301 301 301 300 299 299 300 301 302 301 301 301 301 301 301 301
297 297 297 296 296 296 297 297 298 299 299 299 300 300 301 301 302 302 301 302 301 300 300 300 300 300 301 300 300 300 300 299 298 297 298 299 299 300 300 299 299 299 299 299
298 298 297 297 296 296 296 298 298 298 298 298 299 299 300 300 299 299 300 299 299 299 299 299 299 300 299 297 295 293 292 292 293 294 296 297 297 298 298 298 298 298 298 297
297 297 297 297 297 296 297 298 298 297 297 298 298 298 298 298 298 298 298 298 298 297 297 296 296 296 297 293 290 289 289 289 290 292 294 295 296 296 296 296 296 296 295 295
297 296 296 296 297 296 297 296 297 296 295 295 295 296 296 295 295 296 295 295 295 295 295 294 293 291 290 289 288 288 288 288 288 290 292 292 292 294 294 294 294 294 294 294
296 296 296 296 296 295 296 296 296 293 291 289 288 288 288 288 288 288 288 289 288 288 289 290 289 288 287 287 287 287 287 287 287 288 289 290 291 291 291 291 292 291 291 291
296 296 296 295 296 296 296 295 292 291 291 292 293 293 293 292 291 290 288 287 287 287 287 288 290 290 290 287 286 286 286 286 286 286 286 286 286 286 286 286 286 286 286 286
295 295 295 295 295 295 294 292 291 293 294 294 294 294 294 294 293 294 295 292 289 287 287 287 287 286 287 288 287 286 285 286 286 287 287 287 287 287 287 287 287 286 286 286
294 294 294 295 295 294 293 293 293 293 292 292 291 291 291 292 294 294 294 293 293 292 289 286 286 285 285 285 285 286 285 286 286 286 286 286 287 287 286 286 286 286 286 286
295 294 294 293 293 292 292 291 290 290 290 289 290 290 290 290 290 290 290 292 293 292 292 292 289 286 285 285 285 285 285 286 285 285 285 285 285 286 286 286 286 285 285 285
294 294 293 293 292 291 290 289 288 287 287 287 287 287 287 288 289 290 290 290 289 291 292 291 290 290 288 286 285 285 285 285 285 286 285 284 284 285 286 286 285 285 285 285
295 295 294 292 291 289 288 288 288 288 288 288 287 287 287 287 287 287 286 287 289 290 290 291 290 290 289 289 289 286 285 285 285 285 285 285 284 284 284 285 285 285 284 284
Wind_Speed
6 6 8 9 9 7 5 6 3 4 7 10 9 11 9 5 6 8 12 12 9 9 10 11 11 9 8 10 13 15 15 16 16 15 15 16 16 16 17 17 19 20 21 20
2 5 4 4 6 8 10 10 10 10 12 11 17 10 10 5 4 6 11 14 9 6 5 5 6 5 6 7 8 11 14 15 16 17 17 17 18 19 20 22 22 22 22 20
3 7 2 2 4 2 0 0 4 4 5 9 12 10 10 11 8 12 12 12 7 4 1 3 4 5 5 6 7 7 9 12 15 17 18 19 20 20 20 22 22 22 19 16
2 4 1 2 4 2 5 4 2 5 8 12 14 17 14 11 11 12 10 8 7 4 3 2 3 5 7 10 11 11 12 13 15 17 19 20 21 22 21 22 21 20 18 16
2 2 3 3 2 2 2 3 1 3 7 13 16 2 11 11 9 7 6 5 5 5 6 8 10 9 8 10 12 14 16 17 17 20 21 23 24 24 24 24 24 22 20 18
1 1 1 4 2 2 3 4 2 2 5 10 14 2 5 18 10 7 8 8 7 8 10 11 13 13 14 14 16 16 18 21 22 20 20 23 25 25 24 25 21 20 21 20
3 3 4 4 1 5 3 4 5 1 3 7 3 5 13 16 8 9 10 10 9 7 9 11 13 15 16 17 17 18 19 19 20 21 22 23 22 23 23 22 23 23 21 18
3 3 2 6 4 4 3 2 2 2 4 6 8 11 11 14 12 8 8 8 8 7 8 9 11 12 14 16 16 17 18 19 19 22 22 21 23 22 23 24 24 22 19 17
5 1 3 4 2 3 2 2 1 3 5 7 9 11 14 15 18 11 9 9 9 9 8 8 9 10 11 12 12 14 15 18 20 22 22 22 22 22 23 23 22 20 19 17
2 4 10 9 7 6 5 4 3 6 10 10 10 11 12 15 15 13 9 8 8 9 9 9 9 9 8 8 8 10 12 16 19 20 20 20 20 21 22 23 22 22 20 16
5 7 2 8 9 7 7 7 11 14 14 16 15 12 11 12 13 11 9 8 8 8 8 8 7 8 7 5 4 6 10 14 17 17 18 18 20 21 22 21 19 18 17 15
3 7 2 4 8 7 8 9 7 8 11 11 11 13 12 12 12 9 8 7 7 8 9 6 5 5 5 4 3 2 7 12 14 16 18 18 19 20 20 20 19 18 15 12
3 11 5 5 5 5 4 5 7 9 10 14 12 10 11 11 12 10 8 7 7 7 8 7 3 3 3 2 4 4 3 4 8 12 14 15 17 18 19 19 18 17 15 15
10 9 3 4 2 3 5 5 8 7 7 9 8 7 9 10 9 8 8 7 8 10 7 5 2 1 1 0 1 3 5 6 7 8 11 12 14 15 16 16 17 16 16 15
12 9 5 4 4 3 4 5 5 3 6 6 7 7 9 11 10 9 9 7 8 7 9 7 5 5 4 4 4 5 4 6 8 11 13 14 14 16 17 18 18 17 16 14
14 9 7 5 5 5 2 3 3 3 4 4 5 4 6 7 8 9 10 10 10 8 8 8 10 11 10 10 10 10 9 9 10 11 13 15 15 16 17 18 18 17 16 14
16 9 11 10 8 5 4 4 4 4 4 5 5 5 5 6 8 9 9 9 11 12 13 13 14 14 13 11 11 12 11 12 13 12 12 12 13 14 14 15 16 17 16 16
9 6 11 9 9 7 6 6 5 5 5 6 6 7 7 7 8 10 11 12 12 13 14 15 15 15 14 10 12 12 13 13 14 14 13 12 11 13 14 14 15 15 15 14
12 12 12 11 9 8 6 6 5 4 5 5 6 6 7 8 8 8 10 11 12 13 13 14 14 15 14 9 12 13 12 12 13 13 13 13 12 11 11 11 11 11 10 11
14 10 10 10 8 7 6 7 6 6 7 7 6 6 6 7 7 8 10 10 10 11 12 11 12 11 10 11 12 11 11 10 11 11 12 12 13 12 11 10 9 10 10 11
12 11 10 8 6 6 7 7 6 6 7 6 6 6 6 7 8 9 10 11 9 11 10 9 9 10 11 11 10 10 10 9 9 10 11 13 13 13 13 13 13 13 14 14
13 12 10 10 10 8 8 7 6 6 6 5 6 7 8 8 10 10 11 13 12 13 12 12 10 10 11 12 10 9 9 9 8 7 7 7 7 7 7 8 9 10 10 11
12 11 10 9 8 7 7 7 7 7 8 10 11 13 14 15 14 16 15 13 13 13 12 12 12 13 12 12 13 11 11 10 9 8 7 6 6 6 6 8 9 10 11 11
12 10 10 9 9 8 8 7 9 10 13 14 14 15 16 15 14 13 14 14 15 15 14 13 13 13 13 13 13 13 12 12 11 10 8 7 6 6 6 8 9 10 10 10
12 10 9 8 6 6 7 8 8 8 8 7 7 9 11 12 15 15 15 14 14 15 17 18 17 15 15 14 14 13 13 14 13 11 10 9 8 7 8 8 9 9 9 10
10 8 6 4 5 5 5 4 4 5 6 6 6 9 10 11 13 14 15 15 15 15 16 15 15 18 19 18 16 16 15 15 15 14 13 11 11 10 10 10 10 10 10 10
9 7 5 5 5 5 5 4 3 3 5 7 9 10 12 13 14 15 16 16 16 16 17 17 17 16 17 18 21 20 19 19 19 16 14 14 15 13 12 11 11 12 12 11
Wind_Direction
293 300 275 260 276 261 262 274 285 12 312 310 1 1 9 34 62 77 76 65 76 81 82 86 94 113 138 159 175 182 188 195 200 204 209 213 214 214 210 200 195 193 198 197
275 348 334 252 257 248 254 266 270 273 279 272 302 308 343 16 358 359 4 3 18 68 91 110 113 121 132 148 175 192 202 209 214 215 215 213 209 203 199 195 192 190 194 199
36 3 320 140 30 28 95 3 300 273 318 329 318 319 310 326 312 319 315 330 338 336 106 133 172 198 210 217 213 215 218 220 219 218 216 213 209 204 202 197 195 197 203 218
337 312 72 75 16 49 120 115 8 325 331 322 313 304 300 296 297 309 313 311 302 277 265 253 217 216 218 223 222 222 228 230 228 226 223 219 214 209 208 208 209 209 218 226
333 323 334 129 144 241 276 156 48 314 338 334 330 317 65 21 353 340 325 306 304 286 280 283 280 270 253 245 238 235 232 230 226 221 219 219 218 215 214 217 218 217 223 222
183 290 267 112 154 282 222 222 155 290 11 354 357 79 20 354 355 357 340 322 310 296 292 290 286 282 277 265 254 248 241 235 230 224 219 218 218 219 219 216 217 222 218 212
204 258 264 209 295 151 233 74 151 124 6 2 16 332 317 340 345 333 326 317 309 305 296 293 290 287 282 274 266 256 246 237 231 225 221 220 220 220 220 220 220 215 211 208
166 223 261 165 152 234 42 177 161 272 307 313 315 323 331 344 342 333 322 317 316 320 309 302 298 290 281 273 265 257 248 235 228 223 221 219 217 217 219 219 211 208 211 213
221 231 120 172 231 258 206 243 271 309 320 326 324 322 322 325 340 334 333 331 336 338 336 326 321 310 287 269 264 259 243 228 219 214 214 215 216 215 211 209 209 209 213 216
274 185 231 241 243 213 218 204 280 300 305 309 300 305 322 317 318 326 322 324 333 338 337 336 335 337 315 280 263 246 225 212 204 203 207 209 209 210 213 214 212 214 217 218
250 246 229 245 236 218 226 271 296 297 297 292 284 282 298 312 312 309 305 316 334 339 338 345 343 351 352 327 277 232 207 195 194 200 206 212 214 217 216 216 220 225 224 223
229 161 150 143 184 216 269 283 296 307 312 315 285 268 281 293 297 288 282 286 296 324 322 332 357 354 357 32 56 176 201 200 201 205 207 209 216 217 215 215 218 220 223 234
160 164 155 173 241 267 270 276 286 299 310 315 306 268 263 280 292 279 272 278 281 301 294 291 325 7 26 47 114 125 146 201 214 218 218 221 222 221 221 218 220 222 220 228
168 168 185 206 189 256 268 283 304 321 325 313 315 300 293 280 280 270 265 274 289 279 256 254 254 299 321 84 145 185 205 221 225 232 228 225 224 224 223 223 225 225 228 234
189 199 205 206 218 230 261 307 317 333 321 326 310 291 276 278 264 255 256 263 289 259 241 240 278 296 294 291 286 274 255 244 242 241 241 241 236 230 228 228 228 232 231 232
187 196 203 204 220 220 251 301 320 328 333 346 358 336 310 296 261 255 255 269 265 274 260 246 262 271 284 284 280 277 271 265 255 246 243 241 241 239 237 236 234 231 232 233
164 193 195 197 208 195 226 263 284 298 305 312 317 330 308 290 285 280 275 274 275 269 265 264 267 270 271 273 275 270 266 264 261 255 246 241 239 237 239 239 237 235 234 237
200 189 180 197 199 206 231 262 276 285 293 302 308 308 310 299 288 281 280 279 277 278 277 270 269 267 265 272 279 278 274 267 258 250 242 235 236 239 236 237 239 236 236 235
196 188 189 197 210 229 240 257 267 291 315 315 315 309 297 298 294 294 291 287 286 284 280 279 274 274 269 280 283 279 273 267 256 246 237 230 225 231 231 231 229 227 225 224
192 183 188 202 214 226 242 264 279 293 311 308 309 306 305 303 301 296 294 295 296 294 295 294 307 312 298 276 276 279 274 268 255 236 225 223 225 220 226 225 223 225 230 240
182 187 193 199 215 228 252 268 270 288 295 300 312 318 309 305 302 301 299 294 293 285 278 285 291 291 290 287 281 273 267 259 249 230 218 214 214 217 221 227 234 238 242 244
184 187 190 208 214 221 236 254 266 274 286 305 311 309 314 315 308 303 299 297 292 285 278 270 262 279 296 295 285 271 262 252 240 224 213 206 204 207 214 220 224 229 232 235
182 188 198 206 214 230 248 260 263 275 289 297 299 304 306 302 297 299 299 293 289 287 282 275 265 262 255 261 265 261 254 243 229 219 212 212 222 232 240 245 246 246 244 244
185 194 206 216 228 241 253 261 278 283 284 289 293 292 288 293 294 295 298 297 295 286 279 277 270 266 262 258 256 253 246 238 231 228 228 233 246 262 268 264 255 248 243 238
182 189 200 209 225 249 272 287 292 292 300 314 313 308 309 305 302 306 299 299 296 293 292 283 260 259 264 263 256 249 247 242 237 233 235 244 255 270 281 275 257 244 240 240
183 190 199 229 256 264 263 268 288 301 316 332 342 329 329 326 324 319 315 308 299 292 296 296 287 271 255 252 256 249 245 239 235 237 244 252 266 273 281 283 265 254 252 250
199 209 227 256 262 246 242 246 259 284 327 348 353 345 340 337 332 328 323 316 310 303 296 294 287 279 270 265 253 242 246 238 237 239 240 246 258 263 271 277 266 259 256 248